User: anonymous   Login
Location: Astronomy Club of Akron Observatory
(40.9700°N, 81.5606°W)
Time: 13:39:01
(UTC-04:00)
Language:

ISS - Orbit

View from above orbital plane
View from above orbital plane
View from above satellite
View from above satellite

Ground track
Ground track

The orbit data is extracted from the following two-line orbital elements,

1 25544U 98067A   18289.55697895  .00016717  00000-0  10270-3 0  9043
2 25544  51.6384 133.9010 0004169 297.2983  62.7745 15.53825669 17386
Epoch (UTC): 16 October 2018 13:22:02
Eccentricity: 0.0004169
inclination: 51.6384°
perigee height: 403 km
apogee height: 408 km
right ascension of ascending node: 133.9010°
argument of perigee: 297.2983°
revolutions per day: 15.53825669
mean anomaly at epoch: 62.7745°
orbit number at epoch: 1738

The dashed part of the orbit path shows where the satellite is in the earth's shadow,  

DLR